World > North America > United States > Missouri > Vigus

Vigus, MO Hourly Weather Conditions

Feedback E-mail the Weather

Quick WX

Vigus, MO Weather Maps

°F °C°F °C
Vigus Weather Map
UTC Time: 11/28/2022, 11:14
Your Time:

Vigus, MO Regional Weather

Expires:202211281100;;940009
ASUS43 KEAX 281015
RWREAX

WEATHER ROUNDUP FOR EASTERN KANSAS AND NORTHWEST MISSOURI
NATIONAL WEATHER SERVICE KANSAS CITY/PLEASANT HILL MO
400 AM CST MON NOV 28 2022


MOZ041-047>049-056>058-063>065-088>090-097-281100-
...EASTERN AND SOUTHERN MISSOURI...
  
CITY           SKY/WX    TMP DP  RH WIND       PRES   REMARKS
ST. LOUIS INTL CLOUDY    44  37  76 W5        29.91R                  
SPIRIT OF STL  CLOUDY    42  38  85 SW5       29.90S                  
COLUMBIA       CLEAR     36  33  89 SW5       29.89F WCI  32          
JEFFERSON CITY CLEAR     40  35  83 CALM      29.91S                  
MEXICO         CLEAR     34  34 100 SW3       29.89S                  
HANNIBAL       PTCLDY    37  36  93 CALM      29.89S                  
ROLLA          CLOUDY    40  38  93 W3        29.90S                  
LEBANON        CLOUDY    37  34  87 SW5       29.91S WCI  34          
OSAGE BEACH    CLEAR     34  33  96 SW3         N/A                   
SPRINGFIELD    CLEAR     32  30  92 SW3       29.90S                  
BRANSON        CLEAR     36  36 100 CALM      29.92S                  
JOPLIN         CLEAR     32  30  92 S5        29.92S FOG     WCI  27  
WEST PLAINS    CLOUDY    43  35  73 W5        29.91S                  
SIKESTON       CLOUDY    45  43  93 CALM      29.93S                  

$$


SKY/WX - Weather  TMP - Temperature  DP - Dew Point  RH - Humidity
WIND - Wind Direction/Speed PRES - Barometric Pressure VSB - Visibility
WCI - Wind Chill Index E13G22 Wind - East Wind 13 mph/Gusts of 22 mph

Trending Headlines

Trending Entertainment Headlines

Vigus Radar Loop

Use the map search tool if you want to place a location marker on the radar map...

Vigus Quick Facts

National Two Day Weather Forecast


E-mail the Vigus Weather Forecast

Voice your opinion or tell us about page issues...